SCP
1 1 1 1 1 1 1 1 1 1 1 1 0 0 0 0 0 0 0 0 0 0
1 0 1 1 1 1 1 1 1 1 1 0 0 0 0 0 0 0 0 0 0 0
0 0 0 1 1 1 1 1 1 0 0 0 0 0 0 0 0 0 0 0 0 0
0 0 0 0 1 1 1 0 0 0 0 0 0 0 0 0 0 0 0 0 0 0
0 0 0 0 0 0 0 0 0 0 0 0 0 0 0 0 0 0 0 0 0 0
0 0 0 0 0 0 0 0 0 0 0 0 0 0 0 0 0 0 0 0 0 0
0 0 0 0 0 0 0 0 0 0 0 0 0 0 0 0 0 0 0 0 0 0
0 0 0 0 0 0 0 0 0 0 0 0 0 0 0 0 0 0 -0 0 0 0
0 0 0 0 0 0 0 0 0 0 0 -0 0 0 0 0 0 0 -0 0 0 -0
0 0 0 0 0 0 0 0 0 -0 0 0 0 0 0 0 0 -0 0 0 0 0
0 0 0 0 0 0 0 0 -0 -0 0 0 0 0 0 0 0 0 0 0 0 0
0 0 0 0 0 0 0 0 0 0 0 0 0 0 0 0 0 0 0 0 0 0
-0 -0 0 0 0 0 -0 0 0 -0 -0 0 0 0 0 0 0 0 0 0 0 0
-0 -0 0 -0 -0 -0 -0 -0 -0 -0 0 0 0 0 0 0 0 0 0 0 0 0
Wind_Speed_500mb
38 33 32 32 31 29 27 27 31 30 26 24 22 21 21 16 17 19 17 19 18 18
37 34 34 33 35 30 28 27 26 25 23 23 20 20 19 17 16 17 19 21 20 21
36 34 36 37 31 28 27 25 24 23 21 20 20 20 19 16 16 19 17 14 19 19
38 37 35 30 27 24 24 22 19 19 19 20 21 21 17 18 20 16 15 15 15 14
39 35 31 27 24 22 20 19 19 20 20 21 20 19 17 18 16 17 13 14 11 15
36 31 28 25 22 21 22 22 20 21 21 20 20 18 18 16 16 13 13 11 11 15
32 30 28 25 24 24 24 23 22 21 20 20 20 19 16 15 14 11 9 7 4 10
30 28 28 26 24 25 25 23 23 23 22 20 18 16 16 14 12 12 11 6 5 5
28 29 28 26 24 25 27 26 26 25 22 21 15 14 10 12 13 14 12 9 8 4
29 29 26 24 23 25 30 28 26 25 25 19 16 12 6 10 14 13 11 14 13 10
30 28 26 24 22 25 29 28 28 26 25 18 14 11 7 11 10 12 12 15 15 14
30 28 25 25 24 24 28 28 26 28 24 20 15 10 10 13 9 11 12 12 12 19
31 27 23 22 23 22 22 26 26 29 23 17 16 15 14 19 12 12 11 10 6 3
29 26 22 20 19 22 24 27 29 25 20 15 18 16 14 18 15 11 11 11 11 8
Wind_Direction_500mb
167 160 159 158 165 164 169 175 195 195 206 209 215 226 232 224 220 227 224 219 214 218
153 151 158 159 156 162 168 185 184 191 200 210 220 218 218 210 221 214 211 217 223 224
154 154 157 160 155 160 171 171 189 197 208 210 205 203 204 218 216 209 221 221 234 241
145 147 151 155 160 170 185 189 191 198 199 196 194 195 198 201 212 213 214 233 237 232
144 148 150 154 161 173 175 181 185 181 184 183 189 195 194 196 211 213 224 243 228 224
146 150 152 155 159 162 167 165 171 173 177 181 187 188 191 208 213 219 221 221 233 234
148 150 150 152 154 161 161 163 171 172 171 178 177 180 195 211 209 197 188 222 276 233
151 149 149 152 159 163 162 163 166 163 165 173 177 182 199 200 178 170 162 157 147 87
153 150 152 155 161 165 165 166 168 169 166 167 169 184 183 171 163 164 165 163 171 127
157 154 155 158 169 174 176 171 169 169 163 176 178 170 180 182 160 168 182 187 185 169
156 156 158 166 173 180 177 168 168 164 163 166 171 183 208 182 181 175 171 178 192 209
155 155 160 169 174 171 171 169 167 170 172 173 186 201 193 148 190 168 160 167 210 217
154 155 155 169 168 162 170 172 166 175 173 187 196 202 204 171 156 172 178 185 205 218
156 156 159 156 166 160 162 163 163 165 178 193 175 199 184 182 181 187 191 200 203 197
Wind_Speed_850mb
38 33 32 32 31 29 27 27 31 30 26 24 22 21 21 16 17 19 17 19 18 18
37 34 34 33 35 30 28 27 26 25 23 23 20 20 19 17 16 17 19 21 20 21
36 34 36 37 31 28 27 25 24 23 21 20 20 20 19 16 16 19 17 14 19 19
38 37 35 30 27 24 24 22 19 19 19 20 21 21 17 18 20 16 15 15 15 14
39 35 31 27 24 22 20 19 19 20 20 21 20 19 17 18 16 17 13 14 11 15
36 31 28 25 22 21 22 22 20 21 21 20 20 18 18 16 16 13 13 11 11 15
32 30 28 25 24 24 24 23 22 21 20 20 20 19 16 15 14 11 9 7 4 10
30 28 28 26 24 25 25 23 23 23 22 20 18 16 16 14 12 12 11 6 5 5
28 29 28 26 24 25 27 26 26 25 22 21 15 14 10 12 13 14 12 9 8 4
29 29 26 24 23 25 30 28 26 25 25 19 16 12 6 10 14 13 11 14 13 10
30 28 26 24 22 25 29 28 28 26 25 18 14 11 7 11 10 12 12 15 15 14
30 28 25 25 24 24 28 28 26 28 24 20 15 10 10 13 9 11 12 12 12 19
31 27 23 22 23 22 22 26 26 29 23 17 16 15 14 19 12 12 11 10 6 3
29 26 22 20 19 22 24 27 29 25 20 15 18 16 14 18 15 11 11 11 11 8
Wind_Direction_850mb
167 160 159 158 165 164 169 175 195 195 206 209 215 226 232 224 220 227 224 219 214 218
153 151 158 159 156 162 168 185 184 191 200 210 220 218 218 210 221 214 211 217 223 224
154 154 157 160 155 160 171 171 189 197 208 210 205 203 204 218 216 209 221 221 234 241
145 147 151 155 160 170 185 189 191 198 199 196 194 195 198 201 212 213 214 233 237 232
144 148 150 154 161 173 175 181 185 181 184 183 189 195 194 196 211 213 224 243 228 224
146 150 152 155 159 162 167 165 171 173 177 181 187 188 191 208 213 219 221 221 233 234
148 150 150 152 154 161 161 163 171 172 171 178 177 180 195 211 209 197 188 222 276 233
151 149 149 152 159 163 162 163 166 163 165 173 177 182 199 200 178 170 162 157 147 87
153 150 152 155 161 165 165 166 168 169 166 167 169 184 183 171 163 164 165 163 171 127
157 154 155 158 169 174 176 171 169 169 163 176 178 170 180 182 160 168 182 187 185 169
156 156 158 166 173 180 177 168 168 164 163 166 171 183 208 182 181 175 171 178 192 209
155 155 160 169 174 171 171 169 167 170 172 173 186 201 193 148 190 168 160 167 210 217
154 155 155 169 168 162 170 172 166 175 173 187 196 202 204 171 156 172 178 185 205 218
156 156 159 156 166 160 162 163 163 165 178 193 175 199 184 182 181 187 191 200 203 197